Location: Antioch Baptist Church
(32.7160°N, 96.7483°W)
Time: 19:52:47
(UTC+00:00)

Cosmos 1842 Rocket - Pass Details

Date: 05 December 2023
Orbit: 602 x 631 km, 82.5° (Epoch: 21 February)

Event Time Altitude Azimuth Distance (km) Brightness Sun altitude
Rises 12:32:55 0° 355° (N) 2,908 6.7 -8.8°
Reaches altitude 10° 12:35:09 10° 356° (N) 2,002 5.9 -8.4°
Maximum altitude 12:39:35 79° 83° (E) 643 3.8 -7.5°
Drops below altitude 10° 12:44:02 10° 171° (S) 2,002 6.6 -6.7°
Sets 12:46:16 0° 172° (S) 2,907 7.5 -6.2°
